Regional Weather Roundup
Issued by NWS

Home | Current Version | Previous Version | Graphics & Text | Print | Product List | Glossary On
Versions: 1 2 3 4 5 6 7 8 9 10 11 12 13 14 15 16 17 18 19 20 21 22 23 24 25 26 27 28 29 30 31 32 33 34 35 36 37 38 39 40 41 42 43 44 45 46 47 48 49 50
000
ASUS43 KMKX 020400
RWRWI

WISCONSIN REGIONAL WEATHER ROUNDUP
NATIONAL WEATHER SERVICE MILWAUKEE/SULLIVAN WI
1000 PM CST THU DEC 01 2016

NOTE: "FAIR" INDICATES FEW OR NO CLOUDS BELOW 12,000 FEET WITH NO
SIGNIFICANT WEATHER AND/OR OBSTRUCTIONS TO VISIBILITY.

WIZ001-002-006>008-014>016-023>028-020500-
NORTHWEST WISCONSIN

CITY           SKY/WX    TMP DP  RH WIND       PRES   REMARKS
SUPERIOR ARPT  CLOUDY    30  22  74 NW5       29.99S WCI  25
ASHLAND        CLOUDY    30  25  81 W13       29.96R WCI  20
HAYWARD        CLOUDY    29  20  69 VRB6      29.95R WCI  23
SIREN          CLOUDY    31  23  72 NW8       29.98R WCI  23
CUMBERLAND     CLOUDY    30  23  74 NW12      29.95S WCI  21
RICE LAKE      CLOUDY    31  24  75 N7        29.97S WCI  25
CHETEK         CLOUDY    32  25  76 N6        29.95S WCI  26
LADYSMITH      CLOUDY    31  24  75 N14       29.95S WCI  21
EAU CLAIRE     NOT AVBL
MENOMONIE      CLOUDY    33  26  76 W8        29.98R WCI  26
NEW RICHMOND   CLOUDY    32  26  80 NW12      29.98R WCI  23
OSCEOLA        CLOUDY    32  25  74 N8        30.01S WCI  25
$$

WIZ003>005-009-010-017-018-020500-
NORTH CENTRAL WISCONSIN

CITY           SKY/WX    TMP DP  RH WIND       PRES   REMARKS
MANITOWISH WTR CLOUDY    26  26 100 NW7       29.89R WCI  18
ARBOR VITAE    CLOUDY    29  25  84 NW7       29.88S WCI  22
WOODRUFF       CLOUDY    29  25  84 NW7       29.88S WCI  22
RHINELANDER    CLOUDY    29  22  75 NW9       29.89R WCI  20
EAGLE RIVER    CLOUDY    28  22  81 W12       29.86S WCI  17
LAND O LAKES   LGT SNOW  28  26  92 NW8       29.88R WCI  20
PHILLIPS       CLOUDY    27  23  82 NW7       29.91R WCI  20
TOMAHAWK       CLOUDY    28  23  81 N6        29.90R WCI  22
MEDFORD        CLOUDY    30  23  75 NW10      29.90R WCI  21
MERRILL        CLOUDY    31  24  75 N6        29.91R WCI  25
$$

WIZ029-030-035-036-043>047-020500-
CENTRAL WISCONSIN

CITY           SKY/WX    TMP DP  RH WIND       PRES   REMARKS
WAUSAU         CLOUDY    32  24  72 NW9       29.89S WCI  24
MOSINEE        CLOUDY    32  27  80 NW9       29.91R WCI  24
MARSHFIELD     CLOUDY    32  25  75 NW9       29.91R WCI  24
STEVENS POINT  CLOUDY    32  26  80 NW5       29.91S WCI  27
WAUPACA        CLOUDY    37  30  78 CALM      29.92R
WAUTOMA        CLOUDY    35  30  82 NW10      29.93R WCI  27
WISC RAPIDS    CLOUDY    33  25  72 NW9       29.94R WCI  25
CAMP DOUGLAS   CLOUDY    34  32  93 W7        29.93S WCI  28
$$

WIZ011>013-019>022-031-037>040-048>050-020500-
NORTHEAST WISCONSIN

CITY           SKY/WX    TMP DP  RH WIND       PRES   REMARKS
ANTIGO         CLOUDY    30  23  77 NW13G18   29.87S WCI  20
SHAWANO        CLOUDY    36  25  64 NW5       29.91R WCI  32
OCONTO         CLOUDY    35  26  69 NW3       29.89R
STURGEON BAY   CLOUDY    35  22  58 NW12      29.88R WCI  27
GREEN BAY      CLOUDY    37  27  67 NW12      29.90R WCI  29
MANITOWOC      NOT AVBL
APPLETON       CLOUDY    34  28  80 W8        29.89R WCI  27
CLINTONVILLE   CLOUDY    34  25  69 W10       29.90R WCI  26
OSHKOSH        CLOUDY    36  29  75 NW7       29.90S WCI  30
$$

WIZ032>034-041-042-053>061-020500-
SOUTHWEST WISCONSIN

CITY           SKY/WX    TMP DP  RH WIND       PRES   REMARKS
LA CROSSE      CLOUDY    38  34  85 NW8       29.96S WCI  32
SPARTA         CLOUDY    35  32  88 W5        29.95S WCI  31
VIROQUA        CLOUDY    33  33 100 W7        29.94R WCI  27
BOSCOBEL       CLOUDY    37  33  85 SW5       29.98S WCI  33
PRAIRIE DU CHI CLOUDY    37  32  84 W6        29.99R WCI  32
PLATTEVILLE    CLOUDY    35  35  99 W8        29.97S WCI  28
$$

WIZ056-057-062-063-064-067-068-020500-
SOUTH CENTRAL WISCONSIN

CITY           SKY/WX    TMP DP  RH WIND       PRES   REMARKS
REEDSBURG      CLOUDY    35  33  95 W7        29.94R WCI  29
BARABOO/DELLS  CLOUDY    35  32  90 W6        29.92S WCI  30
LONE ROCK      NOT AVBL
MINERAL POINT  CLOUDY    36  34  93 W6        29.95S WCI  31
MADISON        CLOUDY    36  31  82 VRB6      29.94R WCI  31
MIDDLETON      CLOUDY    37  33  88 W7        29.94S WCI  31
WATERTOWN      CLOUDY    37  33  89 W7        29.92S WCI  31
MONROE         CLOUDY    34  32  93 W10       29.95S WCI  26
JANESVILLE     CLOUDY    36  36 100 W7        29.95S WCI  30
$$

WIZ051-052-058>065-066-070>072-020500-
SOUTHEAST WISCONSIN

CITY           SKY/WX    TMP DP  RH WIND       PRES   REMARKS
MILWAUKEE      MOCLDY    38  31  76 SW10      29.93R WCI  31
WAUKESHA       CLOUDY    34  30  86 W8        29.93R WCI  27
MILWAUKEE/TIMM CLOUDY    37  30  75 W10G17    29.92R WCI  30
RACINE         MOCLDY    36  32  85 W7        29.95R WCI  30
BURLINGTON     CLOUDY    36  34  92 W10       29.94S WCI  28
KENOSHA        CLEAR     35  32  88 W10       29.94R WCI  27
FOND DU LAC    CLOUDY    37  30  75 NW6       29.91R WCI  32
SHEBOYGAN      CLOUDY    37  31  78 W13G23    29.90R WCI  29
WEST BEND      CLOUDY    36  34  93 W7        29.90S WCI  30
JUNEAU         CLOUDY    35  32  89 W5        29.92S WCI  31
$$

LSZ147-162-020500-
LAKE SUPERIOR

STATION/POSITION TIME  TEMP    WIND        PRES    WAVE
                       AIR SEA DIR/SP/G            HT/PER
                 (UTC) (F)     (DEG/KT/KT) (MB)    (FT/S)
DEVILS ISLAND    0300   31     300/ 13/ 15 1014.8R
PORT WING        0340   31     320/ 12/ 15 1014.9S
SAXON HARBOR     0330   31     290/  5/  9 1013.9S
$$

LMZ867-665-643>646-020500-
LAKE MICHIGAN

STATION/POSITION TIME  TEMP    WIND        PRES    WAVE
                       AIR SEA DIR/SP/G            HT/PER
                 (UTC) (F)     (DEG/KT/KT) (MB)    (FT/S)
CHAMBERS ISLAND  0340   36     290/  8/ 11 1011.5R
NORTHPORT PIER   0340   36     300/ 17/ 21 1011.5R
SISTER BAY       0308   36     320/ 23/ 26   N/A
ALGOMA LAKESHORE 0306          310/  8/ 11   N/A
KEWAUNEE LAKESHO 0318   37     330/  9/ 12 1011.3
SHEBOYGAN LAKESH 0300   38     310/  8/ 10 1012.5R
PORT WASHINGTON  0330   38     270/  6/ 10 1013.9S
MILWAUKEE LAKESH 0320   40     270/  8/  9   N/A
S MID LAKE BUOY  0250   42 49  270/ 19/ 23 1012.8R   5/ 5
KENOSHA   LAKESH 0300   38     250/ 11/ 14 1013.9
$$

TC  - TEMPERATURE IN CELSIUS
VSB - VISIBILITY IN STATUTE MILES
WCI - WIND CHILL INDEX
HX  - HEAT INDEX





USA.gov is the U.S. government's official web portal to all federal, state and local government web resources and services.